Weather History for Minneapolis, MN

Change the Weather History Date:

Sunday, September 29, 2013

  Actual Average Record
Temperature  
Mean Temperature 63 °F 56 °F  
Max Temperature 77 °F 66 °F 89 °F (1897)
Min Temperature 48 °F 46 °F 27 °F (1945)
Degree Days  
Heating Degree Days 2 10  
Month to date heating degree days 58 145  
Since 1 July heating degree days 66 164  
Cooling Degree Days 0 1  
Month to date cooling degree days 128 66  
Year to date cooling degree days 977 747  
Growing Degree Days 12 (Base 50)    
Moisture  
Dew Point 44 °F    
Average Humidity 54    
Maximum Humidity 80    
Minimum Humidity 27    
Precipitation  
Precipitation 0.00 in 0.09 in 2.68 in (1881)
Month to date precipitation 1.35 2.99  
Year to date precipitation 27.79 25.16  
Snow  
Snow 0.00 in 0.00 in T in (1907)
Month to date snowfall 0.0 0.0  
Since 1 July snowfall T 0.0  
Since 1 September snowfall 0.0 0.0  
Snow Depth 0.00 in    
Sea Level Pressure  
Sea Level Pressure 29.90 in    
Wind  
Wind Speed 9 mph (South)    
Max Wind Speed 22 mph    
Max Gust Speed 28 mph    
Visibility 10 miles    
Events      
T = Trace of Precipitation, MM = Missing Value Source: NWS Daily Summary

Daily Weather History Graph

Daily Weather History Graph

Search for Another Location

Airport:

Trip Planner

Search our weather history database for the weather conditions in past years. The results will help you decide how hot, cold, wet, or windy it might be!

Date:

Astronomy

Sep. 29, 2013 Rise Set
Actual Time 7:08 AM CDT 6:56 PM CDT
Civil Twilight 6:39 AM CDT 7:25 PM CDT
Nautical Twilight 6:05 AM CDT 7:59 PM CDT
Astronomical Twilight 5:30 AM CDT 8:34 PM CDT
Moon 1:39 AM CDT (9/29) 4:03 PM CDT (9/29)
Length of Visible Light 12h 46m
Length of Day
11h 47m
Waning Crescent, 27% of the Moon is Illuminated
Sep 29
Waning Crescent
Oct 4
New
Oct 11
First Quarter
Oct 18
Full
Oct 26
Last Quarter

Hourly Weather History & Observations

Time (CDT) Temp. Dew Point Humidity Pressure Visibility Wind Dir Wind Speed Gust Speed Precip Events Conditions
12:53 AM 51.1 °F 45.0 °F 80% 29.96 in 10.0 mi SSW 4.6 mph - N/A   Clear
1:53 AM 52.0 °F 44.1 °F 74% 29.97 in 10.0 mi SSW 8.1 mph - N/A   Clear
2:53 AM 51.1 °F 43.0 °F 74% 29.96 in 9.0 mi SSW 4.6 mph - N/A   Clear
3:53 AM 51.1 °F 43.0 °F 74% 29.95 in 10.0 mi SSW 5.8 mph - N/A   Clear
4:53 AM 48.9 °F 43.0 °F 80% 29.96 in 10.0 mi Calm Calm - N/A   Clear
5:53 AM 50.0 °F 42.1 °F 74% 29.96 in 10.0 mi Calm Calm - N/A   Clear
6:53 AM 48.9 °F 42.1 °F 77% 29.97 in 10.0 mi South 3.5 mph - N/A   Clear
7:53 AM 48.9 °F 42.1 °F 77% 29.98 in 10.0 mi South 3.5 mph - N/A   Clear
8:53 AM 52.0 °F 43.0 °F 71% 29.97 in 10.0 mi SSW 6.9 mph - N/A   Clear
9:53 AM 55.9 °F 44.1 °F 64% 29.98 in 10.0 mi South 5.8 mph - N/A   Clear
10:53 AM 62.1 °F 45.0 °F 53% 29.96 in 10.0 mi SSW 4.6 mph - N/A   Clear
11:53 AM 66.0 °F 45.0 °F 47% 29.95 in 10.0 mi South 8.1 mph - N/A   Clear
12:53 PM 69.1 °F 45.0 °F 42% 29.93 in 10.0 mi South 10.4 mph - N/A   Clear
1:53 PM 73.0 °F 45.0 °F 37% 29.88 in 10.0 mi SE 9.2 mph - N/A   Clear
2:53 PM 75.0 °F 41.0 °F 29% 29.86 in 10.0 mi South 15.0 mph 21.9 mph N/A   Clear
3:53 PM 75.9 °F 39.9 °F 27% 29.84 in 10.0 mi SSE 20.7 mph 27.6 mph N/A   Clear
4:53 PM 75.9 °F 42.1 °F 30% 29.83 in 10.0 mi South 13.8 mph 21.9 mph N/A   Clear
5:53 PM 75.0 °F 42.1 °F 31% 29.81 in 10.0 mi SSE 12.7 mph 24.2 mph N/A   Clear
6:53 PM 71.1 °F 44.1 °F 38% 29.81 in 10.0 mi SSE 9.2 mph - N/A   Partly Cloudy
7:53 PM 69.1 °F 45.0 °F 42% 29.82 in 10.0 mi SSE 13.8 mph - N/A   Partly Cloudy
8:53 PM 68.0 °F 44.1 °F 42% 29.82 in 10.0 mi SSE 12.7 mph 20.7 mph N/A   Partly Cloudy
9:53 PM 66.0 °F 45.0 °F 47% 29.82 in 10.0 mi SSE 13.8 mph - N/A   Clear
10:53 PM 64.9 °F 45.0 °F 48% 29.81 in 10.0 mi South 12.7 mph - N/A   Clear
11:53 PM 64.9 °F 45.0 °F 48% 29.81 in 10.0 mi South 15.0 mph 20.7 mph N/A   Clear